STARLINK-30260, 57524

Orbit data source: Space-Track

STARLINK-30260, 57524 is a payload satellite owned by SpaceX/Seattle (US) in LEO that was launched on Tue, 08 Aug 2023 UTC via an FALCON 9 launch vehicle from the Air Force Western Test Range (AFWTR). Payload-class satellites include a variety of spacecraft equipped with specific instruments for various scientific and technological missions. These include communications satellites like Starlink; space stations such as the ISS; scientific satellites like the Hubble; Earth observation satellites from companies like Planet Labs, Umbra, and HawkEye 360; GPS; miniature CubeSats for education and research; and military/defense satellites.

Loading next visibility...
Identifier
57524, 2023-115D
Orbit
LEO
Country
Flag of USUS
Related business
Manufacturer
SpaceX/Seattle
Mission
Operational Commercial Communications
Bus & Motor
STARLINK V2M, Unknown motor
Mass
730 kg wet, ~700 kg dry
Launch date (UTC)
2023-08-08 (3 years ago)
Launch vehicle
FALCON 9
Launch site
Air Force Western Test Range (AFWTR)
Object type
Payload
Rocket body
Debris
Shape & HBR
Box + 2 Pan, 17.7 m
Radar Cross Section
33.884 m², Large (>1 m²)

Expand to show TLE details & history
Last TLE update: 2 days ago

TLE from 2 days ago
0 STARLINK-30260
1 57524U 23115D   26171.29558602  .00000317  00000-0  21065-4 0  9998
2 57524  43.0039 142.1430 0001436 275.6032  84.4656 15.27575116158049
Epoch: 2026-06-20T07:05Z
TLE epoch observation values (Epoch: 2026-06-20T07:05:38.632Z)
Latitude
Longitude
127.21978°
Altitude
482.745 km
Speed
7.626 km/s
True Right ascension
09h 28m 34s
True Declination
0° 00' 00"
Sunlit
Object was in daylight at epoch
Visualization orbit readout
Latitude
Unknown
Longitude
Unknown
Altitude
Unknown
Speed
Unknown
Apparent Right ascension
Unknown
Apparent Declination
Unknown
Sunlit
N/A
Visualization observer readout
Local Sidereal Time
21:27:37
Azimuth
Unknown
Elevation
Unknown
Doppler factor
Unknown
Orbital elements
Apogee altitude
485.994 km
Perigee altitude
484.023 km
Semi-major axis
6,863.145 km
Eccentricity
0.00014
Inclination
43.0039°
RAAN
142.143°
Arg. of periapsis
275.6032°
True anomaly
84.48198°
Mean anomaly
84.4656°
Eccentric anomaly
84.47379°
Mean motion
3.81732 °/min
Orbital period
94.31 mins
BSTAR
0.000021065
Loading maneuver chart data...
Computing Atmospheric mass density...
Loading historical data...
Loading historical data...
Loading historical data...
Loading historical data...
Loading historical data...
Loading historical data...
Loading historical data...

Documentation

Showing up to 5 results
|